Language: 


Des rapports , des résumés tant et plus, au choix de chacun....


Données statistiques de la station
Quotidien Rapport Septembre 21, 2017 Unités:  Anglais    Métrique   les deux
« Précédent Jour
Suivant Jour »
Quotidien Hebdomadaire Mensuel Annuel Actuel
  Haut: Bas: Moyen:
Température: 70.7 °F 32 °F 58.1 °F
Pt de rosée: 55.4 °F 48.2 °F 51.6 °F
Humidité: 98 % 0 % 80 %
Vitesse du vent: 11.4 mph 0 mph 2.2 mph
Rafales: 15.2 mph - -
Vent:- - South
Pression: 30.1 in 30 in -
Précipitation: 0 in    
Historical Graphs
 
 
Données statistiques pour Septembre 21, 2017
Heure Température Point de rosée Pression Vent Vitesse du vent Refales Humidité Pluie (taux horaire)
00:01 52.2 °F 50 °F 30.1 in Calm     94 % 0 in
00:06 52.2 °F 50 °F 30.1 in Calm     94 % 0 in
00:11 52.2 °F 50 °F 30.1 in Calm   0.9 mph 94 % 0 in
00:16 52.2 °F 50 °F 30.1 in Calm   0.9 mph 94 % 0 in
00:21 52 °F 50 °F 30.1 in Calm     94 % 0 in
00:26 52 °F 50 °F 30.1 in Calm     94 % 0 in
00:31 52 °F 50 °F 30.1 in Calm     94 % 0 in
00:36 52 °F 50 °F 30.1 in SSE 2.9 mph 2.9 mph 95 % 0 in
00:41 52 °F 50 °F 30.1 in Calm   2.9 mph 95 % 0 in
00:46 52 °F 50 °F 30.1 in Calm   2.9 mph 95 % 0 in
00:51 52 °F 50 °F 30.1 in Calm     95 % 0 in
00:56 51.6 °F 50 °F 30.1 in Calm   0.9 mph 95 % 0 in
01:01 51.6 °F 50 °F 30.1 in SSE 1.3 mph 1.3 mph 95 % 0 in
01:06 51.6 °F 51.8 °F 30.1 in Calm   2 mph 96 % 0 in
01:11 51.6 °F 51.8 °F 30.1 in Calm   2 mph 96 % 0 in
01:16 51.4 °F 50 °F 30.1 in Calm   2 mph 96 % 0 in
01:21 51.4 °F 50 °F 30.1 in Calm   2 mph 96 % 0 in
01:26 51.4 °F 50 °F 30.1 in SSE 2.5 mph 2.5 mph 96 % 0 in
01:31 51.4 °F 50 °F 30.1 in Calm   3.1 mph 96 % 0 in
01:36 51.4 °F 50 °F 30.1 in Calm   3.1 mph 96 % 0 in
01:41 51.6 °F 51.8 °F 30.1 in Calm   1.1 mph 97 % 0 in
01:46 51.6 °F 51.8 °F 30.1 in Calm   2.7 mph 97 % 0 in
01:52 51.6 °F 51.8 °F 30.1 in Calm   2.7 mph 97 % 0 in
01:57 51.6 °F 51.8 °F 30.1 in Calm   2.7 mph 97 % 0 in
02:02 51.6 °F 51.8 °F 30.1 in Calm   2.7 mph 97 % 0 in
02:07 51.6 °F 51.8 °F 30.1 in Calm   2.5 mph 96 % 0 in
02:12 51.6 °F 51.8 °F 30.1 in South 0.9 mph 2.5 mph 96 % 0 in
02:17 51.4 °F 50 °F 30.1 in Calm   0.9 mph 96 % 0 in
02:22 51.3 °F 50 °F 30.1 in Calm   0.9 mph 96 % 0 in
02:27 51.1 °F 50 °F 30.1 in SSW 1.3 mph 1.3 mph 96 % 0 in
02:32 51.1 °F 50 °F 30.1 in SSE 1.6 mph 2.2 mph 96 % 0 in
02:37 51.1 °F 50 °F 30.1 in Calm   2.9 mph 96 % 0 in
02:42 50.9 °F 50 °F 30.1 in Calm   2.9 mph 96 % 0 in
02:47 50.9 °F 50 °F 30.1 in Calm   0.9 mph 96 % 0 in
02:52 50.9 °F 50 °F 30.1 in Calm   2.5 mph 96 % 0 in
02:57 50.7 °F 50 °F 30.1 in Calm   2.5 mph 96 % 0 in
03:02 32 °F 50 °F 30.1 in Calm     0 % 0 in
03:07 50.5 °F 50 °F 30.1 in Calm   0.9 mph 97 % 0 in
03:12 50.5 °F 50 °F 30.1 in Calm   2.9 mph 97 % 0 in
03:17 50.5 °F 50 °F 30.1 in SSE 3.8 mph 3.8 mph 97 % 0 in
03:22 50.4 °F 50 °F 30.1 in Calm   3.8 mph 97 % 0 in
03:27 50.5 °F 50 °F 30.1 in Calm   2.2 mph 97 % 0 in
03:32 50.5 °F 50 °F 30.1 in Calm   2.2 mph 97 % 0 in
03:37 50.5 °F 50 °F 30.1 in Calm   2.2 mph 97 % 0 in
03:42 50.5 °F 50 °F 30.1 in South 3.6 mph 3.8 mph 97 % 0 in
03:47 50.5 °F 50 °F 30.1 in Calm   3.8 mph 97 % 0 in
03:52 50.4 °F 50 °F 30.1 in Calm   1.1 mph 97 % 0 in
03:57 50.4 °F 50 °F 30.1 in Calm   1.3 mph 97 % 0 in
04:02 50.2 °F 50 °F 30.1 in Calm   1.3 mph 97 % 0 in
04:07 50.2 °F 50 °F 30.1 in Calm     97 % 0 in
04:13 50 °F 50 °F 30.1 in Calm     97 % 0 in
04:18 49.8 °F 50 °F 30.1 in Calm   1.1 mph 97 % 0 in
04:23 49.6 °F 48.2 °F 30.1 in Calm   1.1 mph 97 % 0 in
04:28 49.5 °F 48.2 °F 30.1 in Calm   2.9 mph 97 % 0 in
04:33 49.5 °F 48.2 °F 30.1 in Calm   2.9 mph 97 % 0 in
04:38 49.5 °F 48.2 °F 30.1 in Calm   2 mph 97 % 0 in
04:43 49.5 °F 50 °F 30.1 in Calm   2.7 mph 98 % 0 in
04:48 49.5 °F 50 °F 30.1 in South 1.3 mph 2.7 mph 98 % 0 in
04:53 49.3 °F 50 °F 30.1 in Calm   2 mph 98 % 0 in
04:58 49.3 °F 50 °F 30.1 in Calm   2 mph 98 % 0 in
05:03 49.3 °F 50 °F 30.1 in Calm   1.1 mph 98 % 0 in
05:08 49.1 °F 50 °F 30.1 in Calm     98 % 0 in
05:13 49.1 °F 50 °F 30.1 in Calm     98 % 0 in
05:18 49.1 °F 50 °F 30.1 in Calm     98 % 0 in
05:24 49.1 °F 50 °F 30.1 in Calm     98 % 0 in
05:25 49.1 °F 50 °F 30.1 in Calm   1.1 mph 98 % 0 in
05:28 49.1 °F 50 °F 30.1 in Calm   1.1 mph 98 % 0 in
05:33 49.1 °F 50 °F 30.1 in Calm   1.1 mph 98 % 0 in
05:38 49.1 °F 50 °F 30.1 in Calm   2.2 mph 98 % 0 in
05:43 49.1 °F 50 °F 30.1 in Calm   2.2 mph 98 % 0 in
05:48 49.1 °F 50 °F 30.1 in Calm     98 % 0 in
05:53 48.9 °F 48.2 °F 30.1 in Calm     98 % 0 in
05:58 48.9 °F 48.2 °F 30.1 in Calm     98 % 0 in
06:03 48.7 °F 48.2 °F 30.1 in Calm     98 % 0 in
06:08 48.7 °F 48.2 °F 30.1 in SSE 4.3 mph 4.3 mph 98 % 0 in
06:13 48.9 °F 48.2 °F 30.1 in Calm   4.3 mph 98 % 0 in
06:18 48.9 °F 48.2 °F 30.1 in Calm   1.1 mph 98 % 0 in
06:23 49.1 °F 50 °F 30.1 in SSE 1.6 mph 1.6 mph 98 % 0 in
06:28 49.1 °F 50 °F 30.1 in SSE 1.1 mph 1.6 mph 98 % 0 in
06:33 49.3 °F 50 °F 30.1 in Calm   3.1 mph 98 % 0 in
06:38 49.1 °F 50 °F 30.1 in Calm   3.1 mph 98 % 0 in
06:43 49.1 °F 50 °F 30.1 in Calm     98 % 0 in
06:49 48.9 °F 48.2 °F 30.1 in Calm     98 % 0 in
06:54 48.9 °F 48.2 °F 30.1 in Calm     98 % 0 in
06:59 48.9 °F 48.2 °F 30.1 in Calm     98 % 0 in
07:04 48.9 °F 48.2 °F 30.1 in Calm     98 % 0 in
07:09 48.7 °F 48.2 °F 30.1 in Calm     98 % 0 in
07:14 48.6 °F 48.2 °F 30.1 in Calm     98 % 0 in
07:19 48.6 °F 48.2 °F 30.1 in Calm     98 % 0 in
07:24 48.6 °F 48.2 °F 30.1 in Calm     98 % 0 in
07:29 48.7 °F 48.2 °F 30.1 in Calm     98 % 0 in
07:34 48.6 °F 48.2 °F 30.1 in Calm     98 % 0 in
07:39 48.6 °F 48.2 °F 30.1 in Calm     98 % 0 in
07:44 48.7 °F 48.2 °F 30.1 in Calm     98 % 0 in
07:49 48.7 °F 48.2 °F 30.1 in Calm     98 % 0 in
07:54 48.9 °F 48.2 °F 30.1 in Calm     98 % 0 in
07:59 48.9 °F 48.2 °F 30.1 in Calm     98 % 0 in
08:04 49.5 °F 50 °F 30.1 in Calm     98 % 0 in
08:09 49.6 °F 50 °F 30.1 in Calm     98 % 0 in
08:14 50 °F 50 °F 30.1 in Calm     98 % 0 in
08:19 50.2 °F 50 °F 30.1 in Calm     98 % 0 in
08:24 50.4 °F 50 °F 30.1 in Calm     98 % 0 in
08:29 50.7 °F 50 °F 30.1 in Calm     98 % 0 in
08:35 50.7 °F 50 °F 30.1 in Calm     98 % 0 in
08:40 51.4 °F 51.8 °F 30.1 in Calm     98 % 0 in
08:45 52 °F 51.8 °F 30.1 in Calm     98 % 0 in
08:50 52.5 °F 51.8 °F 30.1 in Calm     98 % 0 in
08:55 52.7 °F 53.6 °F 30.1 in Calm     98 % 0 in
09:00 53.2 °F 53.6 °F 30.1 in Calm     98 % 0 in
09:05 53.8 °F 53.6 °F 30.1 in Calm     97 % 0 in
09:10 54.1 °F 53.6 °F 30.1 in Calm   3.6 mph 97 % 0 in
09:15 54.9 °F 55.4 °F 30.1 in SSW 0.9 mph 7.6 mph 96 % 0 in
09:20 55.2 °F 55.4 °F 30.1 in Calm   7.6 mph 95 % 0 in
09:25 55.8 °F 55.4 °F 30.1 in SSE 7.4 mph 7.4 mph 95 % 0 in
09:30 55.8 °F 53.6 °F 30.1 in SSE 6 mph 7.4 mph 91 % 0 in
09:35 55.9 °F 53.6 °F 30.1 in SSW 1.6 mph 7.4 mph 91 % 0 in
09:40 55.9 °F 53.6 °F 30.1 in SSW 5.4 mph 5.6 mph 91 % 0 in
09:45 55.9 °F 53.6 °F 30.1 in South 2.9 mph 5.6 mph 91 % 0 in
09:50 56.7 °F 55.4 °F 30.1 in SSW 2.7 mph 5.6 mph 92 % 0 in
09:55 57 °F 55.4 °F 30.1 in Calm   6.3 mph 91 % 0 in
10:00 57.6 °F 55.4 °F 30.1 in South 3.6 mph 6.3 mph 90 % 0 in
10:05 58.1 °F 55.4 °F 30.1 in South 5.8 mph 6.3 mph 87 % 0 in
10:10 58.1 °F 55.4 °F 30.1 in South 3.1 mph 6.3 mph 87 % 0 in
10:15 58.5 °F 53.6 °F 30.1 in South 5.4 mph 10.1 mph 84 % 0 in
10:20 58.8 °F 55.4 °F 30.1 in SSW 6.5 mph 10.1 mph 84 % 0 in
10:25 59.4 °F 55.4 °F 30.1 in SSW 7.6 mph 7.8 mph 83 % 0 in
10:35 60.1 °F 55.4 °F 30.1 in Calm   7.6 mph 81 % 0 in
10:40 60.6 °F 55.4 °F 30.1 in WSW 2.9 mph 6.3 mph 81 % 0 in
10:45 61 °F 53.6 °F 30.1 in South 4.3 mph 7.6 mph 78 % 0 in
10:51 60.6 °F 53.6 °F 30.1 in SSE 4.9 mph 7.8 mph 78 % 0 in
10:56 61.5 °F 55.4 °F 30.1 in SSW 1.3 mph 7.8 mph 79 % 0 in
11:01 61.5 °F 55.4 °F 30.1 in Calm   7.6 mph 79 % 0 in
11:06 63 °F 55.4 °F 30.1 in South 4.9 mph 7.6 mph 76 % 0 in
11:11 63 °F 55.4 °F 30.1 in South 7.2 mph 7.2 mph 73 % 0 in
11:16 63.3 °F 55.4 °F 30.1 in SE 3.8 mph 8.1 mph 73 % 0 in
11:21 63.3 °F 55.4 °F 30.1 in South 3.4 mph 8.1 mph 73 % 0 in
11:26 63.5 °F 55.4 °F 30.1 in South 4.9 mph 6.3 mph 73 % 0 in
11:31 64.6 °F 55.4 °F 30.1 in South 5.6 mph 7.8 mph 72 % 0 in
11:36 64.4 °F 53.6 °F 30.1 in SSW 4.3 mph 8.1 mph 69 % 0 in
11:41 64.4 °F 55.4 °F 30.1 in SE 3.6 mph 8.1 mph 70 % 0 in
11:46 64.9 °F 55.4 °F 30.1 in South 6.5 mph 7.8 mph 68 % 0 in
11:51 64.8 °F 55.4 °F 30.1 in SSW 4.9 mph 9.4 mph 68 % 0 in
11:56 64.9 °F 55.4 °F 30.1 in South 1.3 mph 9.4 mph 68 % 0 in
12:01 65.5 °F 53.6 °F 30.1 in SSW 4.9 mph 7.8 mph 66 % 0 in
12:06 65.8 °F 53.6 °F 30.1 in South 7.4 mph 7.8 mph 66 % 0 in
12:11 65.7 °F 53.6 °F 30.1 in South 2.9 mph 13.2 mph 65 % 0 in
12:16 66.2 °F 55.4 °F 30.1 in South 6 mph 13.2 mph 67 % 0 in
12:21 66.4 °F 55.4 °F 30.1 in SSE 4.5 mph 8.1 mph 65 % 0 in
12:26 66.6 °F 55.4 °F 30.1 in SSE 4.3 mph 8.1 mph 64 % 0 in
12:31 66.7 °F 55.4 °F 30.1 in South 3.8 mph 10.1 mph 64 % 0 in
12:36 66.7 °F 55.4 °F 30.1 in South 5.6 mph 10.1 mph 64 % 0 in
12:41 67.5 °F 55.4 °F 30.1 in SSE 6.5 mph 7.8 mph 64 % 0 in
12:47 67.5 °F 55.4 °F 30.1 in South 6.3 mph 9.6 mph 63 % 0 in
12:52 68 °F 55.4 °F 30.1 in SW 8.1 mph 9.6 mph 64 % 0 in
12:57 68.4 °F 55.4 °F 30.1 in South 11.4 mph 11.4 mph 62 % 0 in
13:02 68.5 °F 55.4 °F 30.1 in SSW 5.4 mph 11.4 mph 61 % 0 in
13:07 68.5 °F 55.4 °F 30.1 in SSE 10.1 mph 12.1 mph 61 % 0 in
13:12 68.5 °F 55.4 °F 30.1 in South 4.3 mph 12.1 mph 61 % 0 in
13:17 69.1 °F 55.4 °F 30.1 in SSW 6.3 mph 10.7 mph 59 % 0 in
13:22 69.1 °F 55.4 °F 30.1 in SSW 7.6 mph 9.6 mph 59 % 0 in
13:27 69.3 °F 55.4 °F 30.1 in SSW 7.6 mph 9.6 mph 60 % 0 in
13:32 69.3 °F 51.8 °F 30.1 in South 7.2 mph 8.5 mph 54 % 0 in
13:37 69.4 °F 51.8 °F 30.1 in South 5.6 mph 8.5 mph 54 % 0 in
13:42 69.4 °F 51.8 °F 30.1 in South 6.3 mph 9.2 mph 54 % 0 in
13:47 70 °F 53.6 °F 30.1 in SSW 5.6 mph 10.1 mph 54 % 0 in
13:52 69.8 °F 51.8 °F 30.1 in South 10.7 mph 12.3 mph 51 % 0 in
13:57 69.6 °F 51.8 °F 30.1 in South 8.5 mph 12.3 mph 52 % 0 in
14:02 69.4 °F 51.8 °F 30 in SW 4.9 mph 11 mph 54 % 0 in
14:05 69.8 °F 53.6 °F 30 in South 6.9 mph 11 mph 54 % 0 in
14:10 69.8 °F 53.6 °F 30 in SSW 5.4 mph 15.2 mph 54 % 0 in
14:15 69.8 °F 53.6 °F 30 in South 6.5 mph 15.2 mph 54 % 0 in
14:20 69.4 °F 51.8 °F 30 in SSE 10.7 mph 10.7 mph 53 % 0 in
14:25 69.1 °F 50 °F 30 in SSE 5.6 mph 10.7 mph 51 % 0 in
14:30 69.3 °F 50 °F 30 in SW 8.7 mph 10.5 mph 51 % 0 in
14:35 69.3 °F 50 °F 30 in South 8.1 mph 10.5 mph 51 % 0 in
14:40 69.3 °F 51.8 °F 30 in SSW 6.3 mph 9.6 mph 52 % 0 in
14:45 69.3 °F 51.8 °F 30 in SSW 7.6 mph 8.7 mph 52 % 0 in
14:51 69.3 °F 51.8 °F 30 in SSW 3.1 mph 8.7 mph 52 % 0 in
14:56 69.3 °F 51.8 °F 30 in SSW 7.4 mph 7.4 mph 52 % 0 in
15:01 69.3 °F 51.8 °F 30 in WSW 8.5 mph 9.8 mph 52 % 0 in
15:06 69.3 °F 51.8 °F 30 in SSW 7.4 mph 11 mph 52 % 0 in
15:11 69.3 °F 51.8 °F 30 in SSW 8.1 mph 11 mph 52 % 0 in
15:16 69.6 °F 51.8 °F 30 in SSW 8.7 mph 8.7 mph 53 % 0 in
15:21 69.8 °F 51.8 °F 30 in SSW 6.9 mph 10.5 mph 53 % 0 in
15:26 69.8 °F 51.8 °F 30 in SW 1.6 mph 10.5 mph 53 % 0 in
15:31 69.8 °F 51.8 °F 30 in South 6 mph 7.8 mph 53 % 0 in
15:36 70 °F 53.6 °F 30 in South 7.4 mph 8.7 mph 54 % 0 in
15:41 69.8 °F 51.8 °F 30 in SSW 2.9 mph 8.7 mph 53 % 0 in
15:46 69.6 °F 51.8 °F 30 in South 6.7 mph 10.7 mph 53 % 0 in
15:51 70.3 °F 53.6 °F 30 in SSW 4.9 mph 10.7 mph 54 % 0 in
15:56 70.2 °F 53.6 °F 30 in SSW 5.4 mph 10.1 mph 53 % 0 in
16:01 70.3 °F 53.6 °F 30 in South 5.4 mph 10.1 mph 53 % 0 in
16:06 70.3 °F 53.6 °F 30 in WSW 4.7 mph 7.6 mph 53 % 0 in
16:11 70.5 °F 51.8 °F 30 in SSW 8.5 mph 8.5 mph 51 % 0 in
16:16 70.5 °F 51.8 °F 30 in WSW 2.2 mph 9.8 mph 52 % 0 in
16:21 70.5 °F 51.8 °F 30 in South 6 mph 9.8 mph 52 % 0 in
16:26 70.7 °F 51.8 °F 30 in South 5.8 mph 9.6 mph 51 % 0 in
16:31 70.5 °F 51.8 °F 30 in South 6.3 mph 9.6 mph 51 % 0 in
16:36 70.5 °F 51.8 °F 30 in SSW 6 mph 8.7 mph 51 % 0 in
16:41 70.3 °F 51.8 °F 30 in South 6.5 mph 12.5 mph 51 % 0 in
16:46 70.2 °F 51.8 °F 30 in SSE 6 mph 12.5 mph 51 % 0 in
16:51 69.8 °F 50 °F 30 in SSW 6.3 mph 11.9 mph 50 % 0 in
16:56 70.3 °F 53.6 °F 30 in SSW 5.8 mph 8.7 mph 53 % 0 in
17:01 70.5 °F 51.8 °F 30 in South 5.6 mph 8.1 mph 52 % 0 in
17:06 70.3 °F 51.8 °F 30 in SSW 4.3 mph 8.1 mph 51 % 0 in
17:11 70.2 °F 51.8 °F 30 in South 3.6 mph 8.9 mph 52 % 0 in
17:16 70 °F 51.8 °F 30 in SSE 5.8 mph 10.3 mph 52 % 0 in
17:21 69.8 °F 51.8 °F 30 in SSE 8.7 mph 10.3 mph 52 % 0 in
17:26 69.4 °F 51.8 °F 30 in Calm   10.3 mph 52 % 0 in
17:31 69.8 °F 51.8 °F 30 in SSW 4.9 mph 10.3 mph 53 % 0 in
17:36 69.6 °F 51.8 °F 30 in South 7.8 mph 8.7 mph 53 % 0 in
17:41 68.9 °F 51.8 °F 30 in SSW 6 mph 8.1 mph 53 % 0 in
17:47 68.9 °F 51.8 °F 30 in SSW 5.6 mph 7.6 mph 54 % 0 in
17:52 69.3 °F 51.8 °F 30 in South 7.8 mph 7.8 mph 55 % 0 in
17:57 69.1 °F 51.8 °F 30 in SSW 3.8 mph 7.8 mph 54 % 0 in
18:02 69.1 °F 51.8 °F 30 in SSW 4.9 mph 7.2 mph 54 % 0 in
18:07 69.1 °F 51.8 °F 30 in South 3.1 mph 6.5 mph 54 % 0 in
18:12 67.6 °F 51.8 °F 30 in SSE 2.9 mph 6 mph 56 % 0 in
18:17 67.5 °F 53.6 °F 30 in South 4.7 mph 7.8 mph 59 % 0 in
18:22 67.5 °F 53.6 °F 30 in Calm   7.8 mph 59 % 0 in
18:27 67.3 °F 53.6 °F 30 in Calm   6.5 mph 60 % 0 in
18:32 66.9 °F 53.6 °F 30 in WSW 0.9 mph 6 mph 61 % 0 in
18:37 66.7 °F 53.6 °F 30 in South 3.4 mph 3.8 mph 62 % 0 in
18:42 66.2 °F 53.6 °F 30 in SSE 1.3 mph 4 mph 63 % 0 in
18:47 66 °F 53.6 °F 30 in Calm   4 mph 64 % 0 in
18:53 65.7 °F 53.6 °F 30 in Calm   2 mph 64 % 0 in
18:58 65.3 °F 53.6 °F 30 in Calm   2 mph 65 % 0 in
19:03 65.3 °F 53.6 °F 30 in Calm   2 mph 65 % 0 in
19:08 64.6 °F 53.6 °F 30 in Calm   1.1 mph 66 % 0 in
19:13 64.2 °F 53.6 °F 30 in Calm   1.1 mph 67 % 0 in
19:18 63.9 °F 53.6 °F 30 in Calm     67 % 0 in
19:23 63.5 °F 53.6 °F 30 in Calm     68 % 0 in
19:28 63.5 °F 53.6 °F 30 in Calm     68 % 0 in
19:33 62.8 °F 51.8 °F 30 in Calm   0.9 mph 68 % 0 in
19:38 62.8 °F 51.8 °F 30 in Calm   0.9 mph 68 % 0 in
19:43 61.5 °F 51.8 °F 30 in Calm     70 % 0 in
19:48 61 °F 51.8 °F 30 in Calm     71 % 0 in
19:53 60.6 °F 51.8 °F 30 in Calm     72 % 0 in
19:58 60.3 °F 51.8 °F 30 in Calm     72 % 0 in
20:03 59.4 °F 51.8 °F 30 in Calm     73 % 0 in
20:08 59.2 °F 50 °F 30 in Calm     73 % 0 in
20:13 58.6 °F 50 °F 30 in Calm     74 % 0 in
20:18 58.1 °F 51.8 °F 30 in Calm     75 % 0 in
20:23 57.6 °F 50 °F 30 in Calm     76 % 0 in
20:29 57.2 °F 50 °F 30 in Calm     77 % 0 in
20:34 57 °F 50 °F 30 in Calm     78 % 0 in
20:39 56.7 °F 50 °F 30 in Calm     79 % 0 in
20:44 56.3 °F 51.8 °F 30 in Calm     80 % 0 in
20:49 56.3 °F 51.8 °F 30 in Calm     81 % 0 in
20:54 56.3 °F 51.8 °F 30 in Calm     81 % 0 in
20:59 56.3 °F 51.8 °F 30 in Calm     81 % 0 in
21:04 56.3 °F 51.8 °F 30 in Calm     81 % 0 in
21:09 56.1 °F 51.8 °F 30 in Calm     83 % 0 in
21:14 55.9 °F 51.8 °F 30 in Calm     84 % 0 in
21:19 55.9 °F 51.8 °F 30.1 in Calm     84 % 0 in
21:24 55.9 °F 51.8 °F 30.1 in Calm     84 % 0 in
21:29 55.6 °F 51.8 °F 30.1 in Calm     85 % 0 in
21:34 55.4 °F 51.8 °F 30.1 in Calm     85 % 0 in
21:39 55.4 °F 51.8 °F 30.1 in Calm     85 % 0 in
21:44 55.6 °F 51.8 °F 30.1 in Calm     86 % 0 in
21:49 55.6 °F 51.8 °F 30.1 in Calm     87 % 0 in
21:54 55.4 °F 51.8 °F 30.1 in Calm     86 % 0 in
21:59 55.2 °F 51.8 °F 30.1 in Calm     88 % 0 in
22:05 55 °F 51.8 °F 30.1 in Calm     88 % 0 in
22:10 54.9 °F 51.8 °F 30.1 in Calm     88 % 0 in
22:15 54.9 °F 51.8 °F 30.1 in Calm     88 % 0 in
22:18 54.5 °F 51.8 °F 30.1 in Calm     89 % 0 in
22:23 54.5 °F 51.8 °F 30.1 in Calm     89 % 0 in
22:29 54.5 °F 51.8 °F 30.1 in Calm     89 % 0 in
22:34 54.3 °F 51.8 °F 30.1 in Calm     90 % 0 in
22:39 54.3 °F 51.8 °F 30.1 in Calm     90 % 0 in
22:44 54.1 °F 51.8 °F 30.1 in Calm     91 % 0 in
22:49 54 °F 51.8 °F 30.1 in Calm     91 % 0 in
22:54 54 °F 51.8 °F 30.1 in Calm     91 % 0 in
22:59 53.6 °F 51.8 °F 30.1 in Calm     91 % 0 in
23:04 53.4 °F 51.8 °F 30.1 in Calm     91 % 0 in
23:09 53.4 °F 51.8 °F 30.1 in Calm     92 % 0 in
23:14 53.1 °F 50 °F 30.1 in Calm     92 % 0 in
23:19 52.9 °F 50 °F 30 in Calm     92 % 0 in
23:24 52.5 °F 50 °F 30 in Calm     92 % 0 in
23:29 52.2 °F 50 °F 30 in Calm     92 % 0 in
23:34 52.2 °F 50 °F 30.1 in Calm     92 % 0 in
23:39 52 °F 50 °F 30.1 in Calm     92 % 0 in
23:44 52 °F 50 °F 30.1 in Calm     92 % 0 in
23:49 52 °F 50 °F 30.1 in Calm     93 % 0 in
23:51 52 °F 50 °F 30.1 in Calm     93 % 0 in
23:57 51.8 °F 50 °F 30.1 in Calm     93 % 0 in
Le Gheer Warneton
Courtoisie de Weather Underground - 2.5 mb

Mise a jour : 18/12/2017 03:58:13
Généré par Cumulus 1.9.4 (1099)